Flag for India Weather past 2 weeks in Qadian, Punjab, India

Now
64 °F

Fog.


Feels Like: 64 °F
Forecast: 62 / 85 °F
Wind: 10 mph from North

Location: Amritsar Airport

Current Time: Apr 1, 2015 at 10:54:11 PM

Latest Report: Apr 1, 2015 at 9:30 PM


Visibility: 2 mi

Pressure: 29.77 "Hg

Humidity: 83%

Dew point: 59 °F

Location of QadianLocation

Historic Weather in Qadian — Graph

°F

Qadian temperature yesterday

Maximum temperature yesterday: 77 °F (at 3:00 PM)
Minimum temperature yesterday: 63 °F (at 5:30 AM)
Average temperature yesterday: 70 °F

Past Weeks' High & Low Weather Summary

 TemperatureHumidityPressure
High90 °F (Mar 28, 1:30 PM)100% (Mar 18, 12:30 AM)30.09 "Hg (Mar 18, 12:30 AM)
Low52 °F (Mar 18, 6:30 AM)40% (Mar 28, 12:00 PM)29.71 "Hg (Apr 1, 5:00 PM)
Average70 °F79%29.92 "Hg
* Reported Mar 17 9:30 PM — Apr 1 9:30 PM, Qadian, Weather by CustomWeather, © 2015

Note: Actual official high and low records may vary slightly from our data, if they occured in-between our weather recording intervals... More about our weather records

Advertising

Qadian weather history for previous 24 hours

 ConditionsComfort  
Time TempWeatherWind HumidityBarometerVisibility
9:30 PM
Wed, Apr 1
64 °FFog.10 mph83%29.77 "Hg2 mi
9:00 PM64 °FFog.5 mph88%29.77 "Hg2 mi
8:30 PM64 °FFog.9 mph88%29.74 "Hg2 mi
8:00 PM66 °FFog.9 mph83%29.74 "Hg2 mi
7:30 PM66 °FFog.9 mph88%29.74 "Hg2 mi
7:00 PM66 °FFog.12 mph88%29.74 "Hg2 mi
6:00 PM70 °FFog.9 mph83%29.77 "Hg2 mi
5:30 PM73 °FDrizzle. Broken clouds.9 mph83%29.74 "Hg2 mi
5:00 PM72 °FDrizzle. Broken clouds.7 mph88%29.71 "Hg1 mi
4:30 PM73 °FDrizzle. More clouds than sun.7 mph83%29.74 "Hg1 mi
4:00 PM75 °FDrizzle. More clouds than sun.3 mph78%29.74 "Hg1 mi
3:30 PM73 °FFog.5 mph83%29.77 "Hg1 mi
3:00 PM75 °FDrizzle. More clouds than sun.7 mph78%29.77 "Hg2 mi
2:30 PM75 °FDrizzle. More clouds than sun.9 mph78%29.77 "Hg2 mi
2:00 PM75 °FFog.8 mph78%29.80 "Hg2 mi
1:30 PM73 °FFog.2 mph78%29.83 "Hg2 mi
1:00 PM73 °FFog.7 mph78%29.80 "Hg2 mi
12:30 PM73 °FFog.2 mph83%29.83 "Hg2 mi
12:00 PM73 °FFog.7 mph78%29.83 "Hg2 mi
11:30 AM72 °FFog.3 mph83%29.86 "Hg2 mi
10:30 AM70 °FDrizzle. Mostly cloudy.8 mph88%29.83 "Hg2 mi
10:00 AM70 °FDrizzle. Mostly cloudy.No wind83%29.86 "Hg2 mi
9:30 AM68 °FFog.1 mph88%29.86 "Hg2 mi
8:30 AM68 °FFog.No wind83%29.83 "Hg2 mi
8:00 AM66 °FFog.No wind83%29.83 "Hg2 mi
7:30 AM64 °FFog.No wind88%29.83 "Hg2 mi
7:00 AM64 °FFog.No wind88%29.80 "Hg2 mi
6:30 AM64 °FFog.No wind83%29.80 "Hg2 mi
6:00 AM64 °FFog.No wind83%29.80 "Hg2 mi
5:30 AM63 °FFog.No wind88%29.80 "Hg2 mi
4:30 AM64 °FFog.No wind83%29.80 "Hg2 mi
4:00 AM64 °FFog.No wind83%29.80 "Hg2 mi
3:30 AM64 °FFog.No wind83%29.83 "Hg2 mi
3:00 AM64 °FFog.5 mph83%29.83 "Hg2 mi
2:30 AM66 °FFog.No wind78%29.83 "Hg2 mi
2:00 AM64 °FFog.No wind83%29.86 "Hg2 mi
1:30 AM64 °FFog.No wind83%29.86 "Hg2 mi
12:30 AM64 °FFog.5 mph83%29.86 "Hg2 mi
12:00 AM66 °FFog.3 mph83%29.86 "Hg2 mi
11:30 PM
Tue, Mar 31
68 °FFog.3 mph78%29.89 "Hg2 mi
11:00 PM66 °FFog.No wind88%29.89 "Hg2 mi
10:30 PM70 °FFog.1 mph78%29.89 "Hg2 mi
10:00 PM68 °FFog.No wind88%29.89 "Hg2 mi
Weather by CustomWeather, © 2015

See weather overviewHow to use our weather pages